Temperature
23 22 22 23 20 19 22 23 23 23 23 23 23 22 22 21 21 21 21 20 20 20 20 20 19 19 19 19 18 19 19 18 18 18 18 18 19 19 19 18 18 18 18 18 18 18 18 18 18
22 22 22 22 19 20 22 23 23 24 23 23 23 22 21 21 21 21 20 20 20 20 20 20 19 19 19 18 18 18 19 18 18 18 18 18 19 19 18 18 18 18 18 18 18 18 18 18 18
22 22 23 19 20 21 23 24 23 24 23 23 22 22 21 21 21 21 20 20 19 19 19 19 19 19 19 18 18 18 18 18 18 18 18 19 19 18 18 18 18 18 18 18 18 18 18 18 18
22 22 22 20 23 22 22 23 23 23 23 23 22 21 21 21 21 21 20 20 19 19 19 19 19 19 19 18 18 18 18 18 18 18 18 18 18 18 18 18 18 18 18 18 18 18 17 17 17
22 23 20 21 23 23 23 24 24 23 23 23 22 20 21 21 21 20 20 20 19 19 19 19 19 19 19 18 18 18 18 18 18 18 18 18 18 18 18 18 18 18 18 18 17 17 17 17 17
22 20 20 21 23 24 24 25 24 23 23 22 22 20 21 21 21 20 20 19 19 19 19 19 19 19 19 18 18 18 18 18 18 18 18 18 18 18 18 18 17 18 18 18 17 17 17 17 17
21 19 21 22 22 24 25 25 24 23 22 23 23 20 21 22 21 21 20 19 19 19 19 19 19 19 19 19 18 18 18 18 18 18 18 18 18 18 17 17 17 18 18 17 17 16 16 17 16
22 19 21 21 23 24 25 26 25 24 23 23 23 21 21 22 21 21 20 20 19 19 19 19 19 19 19 18 18 18 18 18 18 18 18 18 18 18 17 17 17 17 17 17 16 16 16 16 16
22 19 21 22 23 24 25 26 26 25 24 23 23 24 24 23 21 21 20 20 20 20 20 19 19 19 19 19 18 18 18 18 18 18 18 18 18 18 17 17 17 17 16 16 16 16 16 16 16
21 20 22 23 23 24 25 26 26 25 23 23 23 24 23 22 22 21 21 21 21 20 20 20 19 19 19 19 18 18 18 18 18 18 18 17 17 17 17 17 17 17 16 16 16 16 16 16 16
22 21 22 23 25 25 25 26 26 25 23 23 24 24 24 22 22 22 22 22 21 21 20 20 20 19 19 19 19 19 18 18 18 17 17 17 17 17 17 17 17 17 16 16 16 16 16 16 16
22 22 23 24 25 26 26 26 26 25 26 26 26 25 25 24 23 23 23 22 22 21 20 20 20 20 19 19 19 18 18 18 18 18 17 18 17 17 17 17 17 17 16 16 16 16 16 16 16
21 22 23 24 25 25 26 25 26 26 26 26 26 25 25 25 24 24 23 23 22 21 21 20 20 20 20 19 19 18 18 18 18 18 18 18 17 17 17 17 17 17 16 16 16 16 16 16 16
22 22 23 24 25 25 25 25 25 26 26 26 26 25 25 25 24 24 23 22 22 21 21 20 20 20 20 19 19 18 18 18 17 17 17 17 17 17 17 17 17 17 17 16 16 16 16 16 16
22 22 23 24 24 25 25 24 24 26 26 26 26 25 25 24 24 24 23 23 22 22 21 21 21 20 20 19 19 18 18 17 17 17 17 17 17 17 17 17 17 17 17 16 16 16 16 16 16
22 22 22 23 24 24 24 23 23 26 25 25 25 25 24 24 23 23 23 22 22 22 21 21 21 21 20 19 19 18 18 17 17 17 17 17 17 17 17 17 17 16 16 16 16 16 16 16 16
20 21 22 22 24 23 23 22 23 25 25 24 24 24 24 24 23 23 22 22 22 22 22 21 21 21 20 20 19 18 18 17 17 17 17 17 17 17 17 17 17 16 16 16 16 16 16 16 15
20 21 21 22 23 23 22 22 22 24 23 24 24 24 24 23 23 23 22 22 22 22 22 21 21 20 20 19 19 18 18 17 17 17 17 17 17 17 17 17 16 16 17 16 16 16 16 16 15
21 21 20 21 22 22 21 21 22 22 22 22 22 22 23 22 22 22 23 23 23 22 21 21 20 20 19 19 19 18 18 18 17 17 17 17 17 17 17 17 17 17 17 17 17 16 16 16 15
21 20 20 21 22 22 21 20 21 21 22 22 22 22 21 21 22 22 22 22 22 21 21 20 19 19 19 19 19 18 18 17 17 17 17 17 17 17 17 17 17 17 17 17 17 17 16 16 15
21 20 20 20 21 21 21 20 20 21 22 22 22 21 21 21 22 22 22 21 21 21 20 20 19 19 18 18 18 17 17 17 17 17 17 17 17 17 17 17 17 17 17 17 17 17 17 16 16
20 22 21 21 20 18 20 18 19 20 19 19 19 19 20 21 22 22 21 21 21 20 20 19 18 18 17 17 17 16 16 16 16 17 17 17 17 17 16 16 16 17 17 17 17 17 17 17 16
21 22 21 20 19 18 19 18 18 18 19 19 18 18 20 21 22 22 21 20 20 20 20 19 18 17 17 17 16 16 16 15 16 16 16 16 16 16 16 16 16 16 16 17 17 17 17 17 16
21 20 19 17 17 17 18 18 17 18 19 20 19 19 20 21 22 21 21 20 20 20 19 19 18 17 17 16 16 15 15 15 15 15 15 16 16 16 16 15 15 16 16 16 16 17 17 17 16
20 19 17 17 16 16 18 18 17 19 19 19 19 20 21 22 22 21 21 21 20 20 19 18 18 17 17 16 16 15 15 15 15 15 15 15 15 15 15 15 15 15 15 16 16 16 16 16 16
18 18 18 17 17 16 18 17 18 20 20 20 21 22 22 22 22 22 22 21 21 20 19 18 18 17 16 16 15 15 15 15 15 15 15 15 15 15 15 15 14 14 15 15 15 16 16 16 16
19 18 19 17 17 17 17 18 19 20 21 21 21 21 22 23 23 23 22 21 21 20 19 18 18 17 16 16 15 15 15 15 15 15 15 15 15 15 15 15 14 14 14 14 15 15 16 16 16
19 17 15 16 16 16 17 18 18 20 20 21 20 20 22 23 23 23 22 22 21 20 19 18 17 17 16 16 15 15 15 15 15 15 15 15 15 15 15 15 15 14 14 14 15 15 16 16 16
18 18 16 14 15 15 16 17 18 18 19 19 19 21 22 23 23 23 22 22 21 20 19 18 17 17 16 16 16 15 15 15 15 15 15 15 15 15 15 15 15 15 15 15 15 15 15 15 15
17 17 15 16 16 15 14 16 18 18 18 18 19 21 22 22 23 23 22 22 21 20 19 19 18 17 17 16 16 15 15 15 15 15 15 15 15 15 15 15 15 15 14 14 14 14 15 15 15
Wind_Speed
5 2 2 4 6 6 2 2 2 3 2 3 3 6 7 5 2 1 1 7 7 8 10 12 12 11 10 9 9 10 10 10 11 12 12 11 11 11 11 12 11 12 12 11 11 11 12 13 12
1 0 3 5 6 3 4 4 2 2 4 4 4 4 4 3 2 4 3 6 8 9 9 11 12 11 11 10 10 10 11 11 12 13 12 12 11 11 12 12 11 11 11 11 10 11 11 11 11
1 2 3 5 5 4 3 3 3 3 5 3 4 4 3 3 3 5 3 9 9 7 8 10 12 12 11 11 11 10 11 13 14 14 13 12 11 11 12 12 11 10 10 10 10 10 10 10 10
3 4 5 6 3 4 4 4 4 7 3 3 4 4 2 1 6 5 7 10 9 7 8 10 12 12 12 11 12 12 11 13 14 14 13 12 11 11 11 11 11 10 10 10 10 9 9 9 9
4 4 5 4 1 3 4 3 4 7 5 4 5 4 1 2 4 8 9 9 9 7 7 9 12 12 12 12 13 12 12 13 14 14 13 12 11 11 11 11 10 10 10 10 9 9 9 8 10
4 5 5 3 2 4 4 2 4 5 4 5 6 5 1 0 6 7 8 7 7 7 6 8 12 13 13 13 13 13 13 12 13 13 13 12 12 11 11 10 9 10 10 10 10 9 9 9 12
4 4 5 6 2 3 2 2 5 6 5 6 7 6 1 2 5 7 8 7 7 6 5 5 9 12 13 13 13 14 13 13 13 12 12 12 11 11 11 10 9 10 11 12 11 10 10 11 12
5 5 4 3 3 3 2 2 3 6 4 3 6 8 6 6 7 8 7 6 6 6 6 5 6 8 10 11 14 14 14 13 13 12 12 12 11 11 10 9 9 10 12 12 12 12 11 12 13
4 5 3 4 5 3 1 1 1 4 6 4 4 6 5 9 11 9 5 4 4 5 5 6 5 6 8 9 12 13 14 14 13 12 12 11 9 8 8 8 8 9 11 11 12 12 12 13 12
4 3 5 4 5 3 1 1 1 4 4 2 2 2 6 12 12 11 8 8 8 7 6 5 6 6 7 8 9 9 10 11 10 10 10 9 8 6 6 7 8 8 9 10 12 12 11 12 11
2 4 3 3 3 3 2 2 1 5 3 6 8 7 10 10 10 11 10 9 9 7 7 7 7 6 6 4 6 7 8 9 9 10 10 10 7 5 4 4 5 7 9 9 10 10 9 10 10
1 3 3 4 2 2 2 2 0 4 7 7 9 10 12 15 15 15 14 11 8 7 9 9 9 8 7 5 4 5 5 6 7 9 11 9 5 3 3 3 4 6 6 7 8 7 9 11 11
2 3 2 5 5 3 2 2 2 4 6 4 8 11 13 17 15 14 12 10 9 10 11 11 11 10 9 7 4 4 4 5 8 9 10 10 5 4 3 3 4 5 6 6 5 6 7 8 8
2 3 4 4 3 3 4 3 2 7 3 5 10 12 13 15 15 12 11 11 12 12 12 12 13 13 11 9 7 6 5 6 7 8 10 11 8 5 3 3 3 4 5 6 6 6 6 5 6
1 3 4 3 2 3 3 5 7 7 3 6 9 11 11 11 11 13 14 13 12 11 13 14 14 12 10 9 8 5 6 7 6 8 11 12 11 8 5 4 3 4 7 7 7 6 7 5 5
1 2 2 5 2 1 5 8 11 3 4 7 8 8 8 9 10 11 10 10 10 11 14 15 14 12 11 9 8 5 6 6 6 9 11 12 12 11 7 4 4 6 8 6 5 5 5 5 5
4 1 2 5 2 2 4 7 11 3 5 7 8 8 8 7 6 6 6 8 10 12 14 16 15 13 12 10 7 6 5 5 6 8 9 11 12 12 8 5 5 8 6 4 5 3 4 5 5
2 1 2 5 4 2 3 9 13 7 4 7 8 8 8 7 5 1 2 3 5 7 10 13 12 9 8 6 5 4 5 5 5 6 8 11 12 13 10 5 6 7 5 5 5 5 4 5 6
2 2 4 6 4 2 8 11 14 10 5 8 8 9 9 7 1 2 3 2 1 3 6 8 7 5 5 4 4 4 4 4 4 4 7 10 11 12 9 5 6 6 7 7 8 5 6 4 4
2 1 4 7 4 3 7 10 10 7 6 7 9 11 9 5 2 1 2 2 1 2 3 4 5 5 5 3 3 2 2 3 3 3 4 8 11 12 11 8 8 8 6 8 7 6 5 3 4
2 2 4 7 8 5 4 8 8 6 4 4 5 7 8 8 7 5 3 2 2 3 4 4 5 6 6 6 4 3 3 2 3 3 4 6 9 11 10 8 8 8 8 9 9 9 8 6 3
5 4 4 7 6 6 3 6 8 8 8 6 4 7 9 8 7 6 5 4 4 4 4 4 5 6 6 7 6 5 4 4 4 4 4 5 7 8 9 8 7 7 7 8 10 8 6 9 6
7 5 4 5 5 5 3 5 8 6 8 8 7 8 8 8 8 7 7 6 5 4 5 5 5 5 6 6 7 6 4 3 3 3 5 5 5 6 7 7 5 6 5 7 8 8 6 6 6
4 3 3 3 2 4 6 6 8 6 8 6 5 8 9 9 8 7 6 5 4 3 4 4 5 5 5 6 6 7 7 6 6 6 6 5 5 6 7 6 5 5 4 5 6 7 7 6 6
4 3 3 4 3 6 4 4 9 8 7 7 8 9 9 9 8 8 8 8 7 6 5 5 5 4 5 6 7 7 7 8 8 7 8 7 6 6 7 6 5 4 3 4 5 6 6 6 7
7 10 7 5 5 5 3 6 8 7 6 4 5 7 8 9 9 10 10 9 8 8 7 6 6 5 5 6 6 6 6 5 5 7 7 8 7 7 9 8 6 4 3 4 6 5 6 6 6
5 7 8 6 4 2 6 7 9 5 3 1 4 6 9 10 11 10 9 9 9 8 8 8 7 6 6 6 6 6 6 6 6 6 6 6 6 7 10 10 8 6 5 5 6 5 6 6 7
4 6 6 6 6 5 6 5 5 7 7 4 5 7 9 9 9 9 8 8 9 8 8 7 7 7 6 6 6 5 6 7 6 6 7 7 7 7 8 9 9 8 6 6 5 5 5 6 6
1 3 4 4 4 5 4 7 6 7 7 8 9 8 9 10 9 8 7 7 8 7 7 7 7 7 6 6 6 6 6 7 7 7 7 7 7 7 8 8 8 7 7 6 5 5 4 5 5
2 4 6 4 4 5 4 8 7 6 7 7 8 8 9 9 8 8 8 7 7 8 8 8 8 7 7 7 6 6 6 7 7 8 7 7 7 6 6 6 6 6 5 5 6 6 6 6 7
Wind_Direction
324 356 86 56 52 50 13 296 248 306 9 27 54 80 96 100 138 235 61 143 130 141 161 171 171 168 166 163 158 153 152 148 145 141 138 133 127 124 122 120 113 107 101 96 90 83 76 73 76
342 18 58 59 79 68 299 271 240 231 147 127 82 82 79 81 92 125 131 156 141 148 160 167 173 168 165 162 160 158 156 150 147 144 140 135 132 129 126 122 115 105 97 91 87 84 78 73 79
284 42 79 70 95 157 250 266 209 119 134 99 77 68 96 147 153 168 172 147 141 150 160 170 173 168 164 162 160 159 155 150 147 144 139 136 134 131 129 125 117 108 96 88 83 82 80 78 85
63 46 55 72 91 214 238 275 168 128 123 77 108 90 59 116 167 169 137 140 142 152 160 174 172 168 165 163 159 157 156 149 144 140 139 135 133 131 131 127 118 107 96 89 83 83 82 83 95
59 73 64 66 333 277 259 270 157 143 155 138 130 125 52 359 131 133 136 142 145 149 159 173 172 166 163 162 158 156 157 149 142 140 140 139 136 135 137 132 118 106 96 92 90 89 83 90 107
50 66 91 141 261 298 279 253 143 129 143 142 132 130 215 96 137 140 136 136 141 146 151 167 171 164 162 161 157 157 158 153 146 142 143 144 140 139 140 135 118 103 97 96 94 85 77 94 115
100 98 137 160 199 297 269 169 152 144 167 180 146 128 222 228 170 132 122 124 133 142 140 156 168 165 164 163 160 159 162 160 151 145 145 144 141 140 139 134 120 104 101 99 91 78 79 96 110
121 100 104 156 172 256 289 166 168 154 177 136 129 147 202 210 148 119 113 124 137 144 146 146 154 155 156 162 163 164 165 162 156 153 151 149 147 145 143 137 124 110 103 97 87 78 83 100 100
101 82 159 202 188 231 285 85 60 140 124 142 177 185 198 145 133 125 121 141 161 168 158 152 146 144 147 158 168 167 168 167 162 160 158 148 138 140 139 139 130 116 107 99 88 78 86 100 92
95 131 211 217 201 206 214 161 109 102 113 142 171 146 129 139 153 163 174 182 188 186 177 163 158 150 152 166 163 162 164 167 160 158 150 137 136 140 140 152 139 124 107 95 84 79 92 97 84
125 186 243 262 217 209 199 199 155 126 185 201 197 174 145 156 170 187 196 194 194 185 183 178 174 163 163 167 161 162 160 159 158 158 149 141 138 135 130 122 105 93 88 80 75 74 96 102 90
169 245 246 277 257 227 205 172 145 183 225 221 196 163 162 174 188 197 203 201 186 177 187 185 184 178 177 175 172 171 166 165 165 164 157 147 141 140 139 135 119 98 88 79 67 74 103 104 93
220 271 276 273 284 278 224 211 237 253 249 232 152 155 178 189 198 206 208 200 188 188 190 191 193 190 185 180 175 176 183 181 173 164 164 160 154 159 154 149 132 112 99 87 77 89 106 106 98
232 280 297 281 268 254 221 251 227 256 237 172 165 181 193 198 202 205 210 207 199 196 193 194 200 200 190 185 182 180 185 188 175 169 170 170 171 170 163 161 145 129 119 107 100 108 108 107 109
240 322 329 298 249 251 183 272 245 237 172 194 196 201 203 208 206 210 214 214 205 197 195 198 204 202 194 187 184 177 182 189 185 178 176 177 182 183 178 176 164 147 137 124 110 105 102 103 104
55 51 334 301 282 259 154 250 266 247 166 212 224 225 223 220 220 221 220 222 211 197 198 204 206 200 195 187 179 171 176 188 196 185 179 182 189 191 182 184 182 162 149 139 128 126 107 108 112
43 98 262 301 300 117 168 249 277 295 188 218 227 232 234 230 224 222 222 227 219 206 201 202 204 198 193 182 175 173 170 187 197 188 179 184 190 193 185 189 182 170 158 149 149 135 129 125 121
218 216 272 287 315 29 257 262 277 283 212 229 219 217 219 214 207 281 291 258 231 207 199 201 202 194 176 164 160 167 178 191 194 193 187 181 186 191 190 189 177 169 162 157 152 140 120 124 129
189 217 274 271 281 295 262 268 277 290 256 228 212 210 212 210 257 7 28 35 90 164 181 190 187 162 146 145 160 177 197 196 197 201 195 187 184 187 190 189 175 171 176 169 152 136 126 124 129
203 284 290 293 300 252 267 274 277 280 252 229 214 207 200 201 241 326 16 49 126 163 166 161 154 137 147 143 138 155 160 176 174 175 191 194 191 189 194 190 185 178 168 160 163 147 135 139 156
235 217 262 281 313 334 309 299 297 292 290 278 226 191 181 193 202 214 223 207 179 187 185 170 153 144 144 139 119 101 92 95 135 175 194 200 194 190 189 187 179 177 173 180 180 167 152 156 174
266 253 274 293 310 294 323 288 279 277 299 276 210 176 182 193 199 204 215 220 210 200 181 174 165 159 156 151 156 164 171 182 189 178 186 192 192 189 188 182 175 181 186 187 188 180 164 157 163
243 282 293 281 257 268 283 260 281 296 279 263 211 190 189 195 198 203 213 222 216 185 174 177 175 173 162 160 162 162 167 173 156 150 159 167 173 172 168 164 164 183 193 190 188 179 169 161 162
249 30 41 44 81 273 244 221 282 257 245 269 213 196 191 196 201 210 216 214 215 191 174 170 175 179 168 170 172 177 180 174 163 162 161 157 152 146 144 140 144 161 175 183 185 183 178 172 165
156 122 351 337 356 256 270 215 252 261 264 243 216 202 195 196 199 208 210 207 206 204 197 183 184 191 178 179 187 194 195 187 183 174 172 165 159 151 146 137 140 145 156 172 170 174 187 178 178
205 173 187 220 231 280 298 238 259 271 293 244 197 186 191 203 208 211 211 204 202 205 204 198 201 206 189 190 198 201 198 189 187 179 173 173 170 160 151 146 144 149 164 175 170 171 182 184 193
185 202 189 160 176 257 281 284 301 288 311 112 152 174 201 213 216 214 208 201 201 204 206 203 206 214 206 199 195 195 195 191 186 178 173 171 169 165 159 156 158 168 177 184 175 178 178 180 195
171 151 111 142 176 234 274 279 259 271 260 255 229 221 226 229 230 225 209 202 202 205 205 200 205 214 214 200 196 192 193 193 184 177 182 181 179 173 166 167 171 176 185 193 194 194 185 183 196
107 115 115 125 156 165 247 269 234 247 261 257 259 258 251 245 238 230 219 205 198 194 195 201 207 210 210 205 202 195 191 187 182 188 195 192 188 184 181 181 181 184 189 194 210 227 204 209 224
214 192 156 163 213 189 197 261 267 257 268 258 266 268 258 252 244 229 214 199 191 194 196 200 203 207 209 201 200 204 191 181 185 196 198 196 197 197 192 190 193 195 196 196 209 226 223 217 232
Height
1491 1491 1491 1492 1496 1510 1511 1505 1501 1499 1498 1498 1497 1498 1499 1502 1505 1509 1504 1503 1504 1506 1508 1510 1512 1514 1516 1517 1519 1520 1521 1523 1524 1525 1527 1528 1529 1530 1530 1531 1532 1533 1533 1533 1533 1533 1533 1533 1533
1492 1492 1493 1493 1507 1522 1515 1502 1500 1498 1497 1498 1498 1499 1500 1501 1502 1503 1502 1504 1505 1507 1509 1511 1513 1514 1516 1517 1519 1520 1521 1523 1524 1526 1527 1529 1530 1530 1531 1532 1533 1534 1534 1534 1534 1534 1534 1535 1535
1492 1492 1494 1497 1510 1517 1510 1499 1497 1497 1498 1498 1499 1500 1501 1502 1502 1503 1503 1504 1506 1508 1509 1511 1513 1515 1516 1518 1519 1521 1522 1523 1525 1526 1528 1529 1530 1531 1533 1533 1534 1534 1535 1535 1535 1535 1536 1536 1537
1493 1494 1495 1503 1508 1505 1502 1497 1496 1497 1499 1499 1499 1501 1501 1503 1503 1503 1504 1505 1507 1508 1510 1511 1513 1514 1516 1518 1519 1521 1523 1524 1525 1527 1528 1529 1531 1532 1534 1535 1535 1535 1536 1536 1536 1537 1538 1538 1539
1493 1493 1501 1509 1505 1500 1496 1495 1495 1497 1498 1499 1499 1501 1502 1503 1502 1503 1505 1506 1507 1508 1510 1511 1513 1514 1516 1518 1519 1521 1523 1525 1526 1527 1529 1530 1532 1533 1535 1536 1536 1536 1537 1537 1538 1538 1539 1540 1541
1494 1495 1510 1514 1505 1499 1496 1495 1495 1496 1497 1498 1499 1501 1502 1503 1503 1504 1505 1506 1507 1508 1510 1511 1513 1514 1516 1518 1520 1521 1523 1525 1527 1528 1530 1531 1532 1534 1535 1536 1537 1537 1538 1538 1539 1540 1541 1542 1542
1496 1500 1507 1507 1507 1501 1496 1495 1495 1496 1497 1498 1498 1501 1502 1503 1504 1504 1505 1506 1507 1509 1510 1511 1513 1514 1516 1518 1520 1521 1523 1526 1528 1529 1531 1532 1533 1535 1536 1537 1538 1539 1539 1539 1540 1541 1543 1543 1543
1494 1500 1505 1507 1506 1501 1495 1494 1494 1495 1496 1498 1499 1500 1501 1502 1503 1505 1506 1507 1508 1509 1510 1511 1513 1515 1516 1518 1520 1522 1523 1526 1528 1529 1531 1533 1534 1535 1537 1538 1539 1540 1540 1541 1542 1543 1544 1545 1545
1494 1504 1509 1504 1503 1498 1494 1494 1494 1495 1495 1497 1498 1499 1500 1501 1502 1504 1505 1506 1507 1509 1510 1512 1513 1515 1516 1518 1520 1522 1524 1526 1528 1529 1532 1533 1535 1536 1538 1539 1540 1541 1542 1543 1544 1545 1546 1546 1546
1494 1505 1501 1496 1495 1494 1493 1493 1494 1495 1496 1497 1497 1498 1499 1500 1501 1502 1504 1505 1507 1509 1510 1512 1514 1515 1517 1518 1520 1521 1523 1525 1527 1529 1531 1533 1535 1537 1538 1540 1541 1542 1544 1545 1546 1547 1548 1548 1548
1493 1497 1494 1492 1492 1492 1493 1493 1494 1494 1496 1495 1495 1496 1498 1499 1501 1502 1503 1505 1507 1509 1510 1512 1513 1515 1516 1518 1519 1521 1522 1524 1526 1528 1530 1533 1534 1536 1538 1540 1541 1543 1545 1546 1547 1548 1549 1550 1549
1494 1493 1493 1492 1492 1492 1492 1492 1493 1493 1493 1493 1494 1495 1497 1498 1499 1500 1502 1503 1506 1508 1509 1511 1512 1514 1515 1517 1518 1520 1522 1523 1525 1527 1529 1532 1534 1536 1537 1540 1542 1544 1546 1547 1549 1550 1551 1551 1551
1494 1493 1492 1491 1491 1492 1492 1492 1492 1491 1491 1492 1493 1494 1495 1496 1497 1499 1500 1502 1504 1506 1508 1509 1511 1512 1514 1515 1517 1518 1520 1523 1524 1526 1529 1531 1533 1535 1537 1540 1542 1544 1546 1548 1549 1551 1551 1552 1552
1493 1492 1491 1490 1490 1491 1491 1490 1491 1489 1490 1490 1491 1492 1493 1494 1495 1497 1499 1500 1501 1503 1506 1508 1509 1509 1511 1513 1515 1517 1519 1522 1524 1525 1528 1530 1533 1535 1537 1540 1542 1544 1546 1548 1550 1551 1552 1552 1553
1492 1492 1491 1489 1489 1489 1490 1493 1488 1487 1488 1488 1489 1490 1491 1492 1494 1494 1495 1497 1499 1501 1503 1505 1507 1508 1509 1511 1514 1515 1517 1520 1522 1524 1526 1529 1532 1534 1537 1540 1542 1544 1546 1548 1550 1551 1552 1553 1554
1493 1497 1500 1492 1488 1488 1494 1499 1485 1485 1486 1487 1487 1488 1489 1490 1491 1492 1494 1495 1496 1498 1499 1502 1504 1505 1507 1509 1512 1514 1516 1518 1520 1522 1525 1527 1530 1533 1536 1539 1541 1544 1546 1548 1550 1551 1552 1554 1555
1500 1505 1503 1496 1488 1488 1492 1496 1484 1483 1484 1485 1485 1486 1486 1486 1487 1489 1490 1492 1493 1494 1495 1497 1500 1502 1504 1507 1509 1512 1514 1516 1518 1520 1522 1525 1528 1532 1534 1537 1540 1542 1544 1546 1549 1550 1552 1553 1555
1506 1505 1503 1500 1490 1489 1493 1492 1484 1480 1482 1482 1482 1482 1483 1483 1484 1486 1488 1489 1490 1490 1491 1492 1495 1499 1502 1505 1507 1509 1511 1513 1516 1518 1520 1523 1526 1529 1532 1535 1537 1540 1542 1544 1546 1549 1551 1553 1555
1499 1502 1504 1498 1489 1491 1493 1491 1483 1478 1479 1478 1478 1478 1479 1481 1483 1485 1486 1487 1487 1487 1487 1488 1492 1496 1499 1502 1504 1506 1508 1510 1512 1515 1517 1520 1523 1526 1529 1532 1534 1537 1539 1541 1544 1547 1549 1551 1553
1497 1502 1503 1496 1488 1490 1492 1489 1481 1476 1475 1473 1473 1474 1476 1480 1482 1483 1484 1484 1484 1485 1485 1487 1489 1492 1496 1498 1501 1503 1505 1507 1509 1511 1514 1516 1519 1522 1525 1528 1531 1534 1536 1538 1541 1544 1546 1549 1551
1497 1500 1500 1499 1491 1488 1492 1492 1483 1474 1472 1471 1471 1471 1474 1478 1480 1482 1482 1483 1483 1483 1484 1485 1487 1489 1492 1495 1497 1498 1500 1502 1505 1507 1509 1512 1514 1517 1520 1524 1527 1531 1533 1535 1538 1540 1543 1546 1549
1498 1490 1492 1494 1500 1505 1498 1510 1489 1478 1474 1470 1469 1469 1472 1476 1478 1480 1481 1481 1482 1482 1482 1483 1485 1487 1489 1491 1493 1494 1495 1497 1500 1502 1504 1507 1509 1512 1515 1519 1523 1526 1529 1532 1535 1537 1540 1543 1545
1491 1486 1490 1493 1498 1505 1501 1507 1496 1480 1476 1469 1467 1468 1471 1474 1477 1479 1480 1480 1481 1481 1481 1482 1483 1485 1486 1488 1489 1490 1492 1494 1496 1498 1500 1502 1504 1507 1510 1514 1517 1522 1525 1528 1531 1534 1537 1539 1542
1486 1490 1495 1501 1505 1514 1501 1506 1501 1482 1473 1467 1466 1467 1470 1473 1476 1477 1478 1479 1480 1480 1481 1481 1482 1483 1484 1486 1487 1488 1489 1491 1492 1494 1496 1497 1499 1502 1505 1509 1513 1517 1521 1524 1527 1530 1533 1536 1539
1489 1501 1516 1516 1521 1517 1498 1501 1495 1471 1466 1465 1464 1466 1468 1471 1473 1474 1475 1477 1478 1479 1480 1480 1481 1482 1483 1484 1485 1486 1486 1488 1489 1491 1493 1494 1495 1498 1501 1505 1509 1513 1517 1521 1524 1527 1530 1533 1536
1488 1495 1513 1521 1522 1514 1499 1501 1483 1466 1463 1461 1462 1464 1467 1469 1471 1472 1473 1475 1476 1477 1478 1479 1480 1481 1481 1482 1483 1484 1484 1485 1486 1488 1490 1491 1493 1495 1498 1501 1505 1510 1514 1518 1521 1524 1527 1530 1533
1486 1490 1487 1504 1509 1512 1504 1491 1476 1463 1461 1461 1462 1463 1465 1467 1468 1469 1471 1473 1474 1476 1477 1478 1479 1479 1480 1481 1482 1482 1483 1484 1485 1486 1488 1490 1492 1494 1496 1499 1503 1507 1511 1515 1519 1522 1525 1527 1530
1480 1485 1496 1504 1514 1517 1505 1496 1487 1469 1465 1462 1461 1462 1463 1464 1466 1467 1469 1471 1472 1474 1475 1476 1477 1478 1479 1479 1480 1481 1481 1483 1484 1485 1487 1489 1492 1494 1496 1499 1502 1506 1509 1513 1516 1519 1522 1524 1527
1483 1487 1493 1501 1503 1513 1514 1500 1472 1468 1464 1463 1461 1461 1461 1462 1463 1464 1467 1468 1470 1471 1472 1474 1475 1476 1477 1478 1478 1479 1480 1481 1483 1484 1487 1489 1491 1493 1496 1498 1501 1504 1507 1510 1513 1515 1518 1520 1522
1481 1484 1491 1501 1503 1504 1509 1498 1462 1462 1461 1460 1459 1459 1459 1459 1460 1461 1463 1465 1467 1468 1470 1471 1472 1474 1475 1476 1477 1478 1479 1480 1481 1483 1485 1488 1491 1493 1495 1497 1500 1502 1505 1507 1510 1512 1515 1517 1518